Weather History for Dubuque, IA

Change the Weather History Date:

Wednesday, June 12, 2013

  Actual Average Record
Temperature  
Mean Temperature 74 °F 68 °F  
Max Temperature 82 °F 78 °F 93 °F (1894)
Min Temperature 65 °F 57 °F 40 °F (1903)
Degree Days  
Heating Degree Days 0 1  
Month to date heating degree days 39 27  
Since 1 June heating degree days 39 27  
Since 1 July heating degree days 7296 7073  
Cooling Degree Days 9 4  
Month to date cooling degree days 16 37  
Year to date cooling degree days 61 74  
Since 1 June cooling degree days 16 37  
Growing Degree Days 24 (Base 50)    
Moisture  
Dew Point 68 °F    
Average Humidity 84    
Maximum Humidity 93    
Minimum Humidity 74    
Precipitation  
Precipitation 0.24 in 0.15 in 3.17 in (1944)
Month to date precipitation 1.50 1.80  
Year to date precipitation 23.08 14.67  
Snow  
Snow 0.00 in 0.00 in - ()
Month to date snowfall 0.0 0.0  
Since 1 June snowfall 0.0 0.0  
Since 1 July snowfall 54.5 41.9  
Snow Depth 0.00 in    
Sea Level Pressure  
Sea Level Pressure 29.73 in    
Wind  
Wind Speed 10 mph (NE)    
Max Wind Speed 28 mph    
Max Gust Speed 37 mph    
Visibility 9 miles    
Events Rain , Thunderstorm    
T = Trace of Precipitation, MM = Missing Value Source: NWS Daily Summary

Daily Weather History Graph

Daily Weather History Graph

Search for Another Location

Airport:

Trip Planner

Search our weather history database for the weather conditions in past years. The results will help you decide how hot, cold, wet, or windy it might be!

Date:

Astronomy

Jun. 12, 2013 Rise Set
Actual Time 5:25 AM CDT 8:40 PM CDT
Civil Twilight 4:50 AM CDT 9:15 PM CDT
Nautical Twilight 4:05 AM CDT 9:59 PM CDT
Astronomical Twilight 3:11 AM CDT 10:54 PM CDT
Moon 9:08 AM CDT (6/12) 11:12 PM CDT (6/12)
Length of Visible Light 16h 24m
Length of Day
15h 15m
Waxing Crescent, 14% of the Moon is Illuminated
Jun 12
Waxing Crescent
Jun 16
First Quarter
Jun 23
Full
Jun 29
Last Quarter
Jul 8
New

Hourly Weather History & Observations

Time (CDT) Temp. Heat Index Dew Point Humidity Pressure Visibility Wind Dir Wind Speed Gust Speed Precip Events Conditions
12:53 AM 69.1 °F - 66.9 °F 93% 29.89 in 10.0 mi NNE 5.8 mph - N/A   Mostly Cloudy
1:53 AM 72.0 °F - 64.9 °F 78% 29.83 in 10.0 mi East 10.4 mph - N/A   Clear
2:53 AM 70.0 °F - 64.9 °F 84% 29.85 in 10.0 mi North 4.6 mph - N/A   Clear
3:53 AM 69.1 °F - 64.9 °F 87% 29.81 in 10.0 mi NE 9.2 mph - N/A   Clear
4:53 AM 68.0 °F - 64.9 °F 90% 29.86 in 10.0 mi NE 6.9 mph - N/A   Clear
5:53 AM 69.1 °F - 64.9 °F 87% 29.88 in 10.0 mi East 4.6 mph - N/A   Clear
6:53 AM 68.0 °F - 64.9 °F 90% 29.90 in 10.0 mi NE 8.1 mph - N/A   Mostly Cloudy
7:53 AM 68.0 °F - 66.0 °F 93% 29.91 in 8.0 mi North 4.6 mph - N/A   Mostly Cloudy
8:53 AM 70.0 °F - 64.9 °F 84% 29.74 in 10.0 mi SE 19.6 mph 27.6 mph 0.00 in   Partly Cloudy
9:53 AM 72.0 °F - 64.9 °F 78% 29.66 in 10.0 mi SSE 23.0 mph 36.8 mph N/A   Clear
10:53 AM 77.0 °F - 69.1 °F 76% 29.76 in 10.0 mi SW 12.7 mph 21.9 mph N/A   Clear
11:32 AM 77.0 °F - 69.8 °F 78% 29.79 in 10.0 mi SW 8.1 mph - N/A   Mostly Cloudy
11:53 AM 78.1 °F - 71.1 °F 79% 29.78 in 10.0 mi West 4.6 mph - N/A   Overcast
12:51 PM 80.6 °F 84.6 °F 71.6 °F 74% 29.76 in 10.0 mi NNE 10.4 mph - N/A   Scattered Clouds
12:53 PM 80.1 °F 83.6 °F 71.1 °F 74% 29.74 in 10.0 mi NE 11.5 mph - N/A   Scattered Clouds
1:53 PM 80.1 °F 83.8 °F 72.0 °F 76% 29.72 in 9.0 mi NE 8.1 mph - N/A   Mostly Cloudy
2:53 PM 80.1 °F 83.8 °F 72.0 °F 76% 29.72 in 8.0 mi NE 10.4 mph - N/A   Overcast
3:49 PM 80.6 °F 84.6 °F 71.6 °F 74% 29.68 in 10.0 mi East 6.9 mph - N/A   Scattered Clouds
3:53 PM 81.0 °F 85.2 °F 72.0 °F 74% 29.66 in 10.0 mi East 6.9 mph - N/A   Scattered Clouds
4:53 PM 82.0 °F 87.4 °F 73.0 °F 74% 29.63 in 10.0 mi ESE 8.1 mph - N/A   Scattered Clouds
5:41 PM 80.6 °F 85.4 °F 73.4 °F 79% 29.64 in 10.0 mi ESE 6.9 mph - 0.00 in Rain , Thunderstorm Light Rain
5:53 PM 79.0 °F - 73.9 °F 84% 29.64 in 10.0 mi NNW 16.1 mph 25.3 mph 0.00 in Rain , Thunderstorm Light Rain
6:13 PM 75.2 °F - 73.4 °F 94% 29.66 in 6.0 mi NE 11.5 mph - 0.00 in   Mostly Cloudy
6:53 PM 73.9 °F - 72.0 °F 93% 29.62 in 6.0 mi North 10.4 mph - 0.00 in   Mostly Cloudy
7:53 PM 72.0 °F - 69.1 °F 91% 29.64 in 10.0 mi NE 5.8 mph - N/A Thunderstorm Partly Cloudy
8:00 PM 71.6 °F - 69.8 °F 94% 29.65 in 10.0 mi NNE 8.1 mph - N/A Thunderstorm Partly Cloudy
8:23 PM 71.6 °F - 69.8 °F 94% 29.64 in 1.8 mi North 21.9 mph 33.4 mph 0.00 in Rain , Thunderstorm Light Thunderstorms and Rain
8:34 PM 68.0 °F - 66.2 °F 94% 29.65 in 4.0 mi NNE 16.1 mph 21.9 mph 0.23 in Rain , Thunderstorm Light Thunderstorms and Rain
8:53 PM 68.0 °F - 66.0 °F 93% 29.65 in 10.0 mi North 9.2 mph - 0.23 in Thunderstorm Thunderstorm
9:11 PM 66.2 °F - 64.4 °F 94% 29.67 in 10.0 mi North 10.4 mph - N/A   Clear
9:22 PM 68.0 °F - 66.2 °F 94% 29.68 in 9.0 mi North 16.1 mph 19.6 mph N/A   Scattered Clouds
9:32 PM 69.8 °F - 69.8 °F 100% 29.68 in 4.0 mi NNE 13.8 mph 24.2 mph N/A   Mostly Cloudy
9:53 PM 68.0 °F - 66.9 °F 96% 29.68 in 6.0 mi NE 17.3 mph 24.2 mph N/A   Overcast
10:25 PM 66.2 °F - 66.2 °F 100% 29.69 in 10.0 mi ENE 9.2 mph - N/A   Overcast
10:53 PM 66.9 °F - 66.0 °F 97% 29.69 in 7.0 mi NNE 6.9 mph - 0.00 in Rain Light Rain
11:36 PM 66.2 °F - 64.4 °F 94% 29.74 in 10.0 mi North 10.4 mph - 0.01 in   Overcast
11:53 PM 66.0 °F - 64.9 °F 96% 29.73 in 10.0 mi NNE 9.2 mph - 0.01 in   Overcast